Regional Weather Roundup
Issued by NWS

Home | Current Version | Previous Version | Graphics & Text | Print | Product List | Glossary On
Versions: 1 2 3 4 5 6 7 8 9 10 11 12 13 14 15 16 17 18 19 20 21 22 23 24 25 26 27 28 29 30 31 32 33 34 35 36 37 38 39 40 41 42 43 44 45 46 47 48 49 50
000
ASUS43 KIND 032209
RWRIN

WEATHER ROUNDUP FOR INDIANA
NATIONAL WEATHER SERVICE INDIANAPOLIS IN
600 PM EDT MON AUG 03 2015

NOTE: "FAIR" INDICATES FEW OR NO CLOUDS BELOW 12,000 FEET WITH NO
SIGNIFICANT WEATHER AND/OR OBSTRUCTIONS TO VISIBILITY.

* - STATION DOES NOT REPORT WEATHER SUCH AS PRECIPITATION OR FOG.

+ - STATION NOT QUALITY CONTROLLED BY THE NATIONAL WEATHER SERVICE.
    USE DATA WITH CAUTION...ESPECIALLY DEWPOINT AND RELATIVE
    HUMIDITY OBSERVATIONS.

INZ001>003-010>013-019-020-032300-
NORTHWEST INDIANA

CITY           SKY/WX    TMP DP  RH WIND       PRES   REMARKS
GARY /AIRPORT/ SUNNY     79  52  38 NE8       29.86S
KNOX *+        SUNNY     77  57  50 N9        29.85S
LA PORTE +     SUNNY     79  53  41 N10       29.87S
MICHIGAN CITY+ SUNNY     75  50  41 N6        29.87R
MONTICELLO +   SUNNY     82  61  49 W10       29.84S
RENSSELAER +   SUNNY     81  55  41 W9        29.86S
VALPARAISO     SUNNY     79  56  45 N5        29.86S

$$

LMZ046-743>745-032300-
SOUTHERN LAKE MICHIGAN

STATION/POSITION TIME  TEMP    WIND        PRES    WAVE
                       AIR SEA DIR/SP/G            HT
                 (UTC) (F)     (DEG/KT/KT) (MB)    (FT)
BURNS HARBOR     2100   74      30/  5/  7 1011.5S
MICHIGAN CITY    2100   77     340/  5/  6   N/A
5NW MICH CITY    2200   74 75   10/  6/  8   N/A     2

$$

INZ004-005-014>016-021>024-032300-
NORTH CENTRAL INDIANA

CITY           SKY/WX    TMP DP  RH WIND       PRES   REMARKS
ELKHART        SUNNY     77  46  33 NW13G18   29.86S
GOSHEN         SUNNY     77  54  44 NW13      29.85S
LOGANSPORT +   SUNNY     81  52  36 NW8       29.85S
PERU/GRISSOM   SUNNY     83  59  42 W12       29.83S
ROCHESTER +    SUNNY     82  61  47 NW9       29.85S
SOUTH BEND     SUNNY     79  48  33 NW13      29.86S
WARSAW +       SUNNY     79  59  50 NW12      29.85S

$$

INZ006>009-017-018-025>027-032300-
NORTHEAST INDIANA

CITY           SKY/WX    TMP DP  RH WIND       PRES   REMARKS
ANGOLA *+      SUNNY     79  54  41 NW14      29.84R
AUBURN +       SUNNY     79  52  38 W13G18    29.85R
FORT WAYNE     MOSUNNY   81  60  48 NW8       29.84R
HUNTINGTON +   SUNNY     80  60  49 NW9       29.84R

$$

INZ028-029-035-036-043>045-051>053-032300-
WEST CENTRAL INDIANA

CITY           SKY/WX    TMP DP  RH WIND       PRES   REMARKS
CRAWFORDSVL +  MOSUNNY   80  62  52 W7          N/A
LAFAYETTE      MOSUNNY   82  62  50 NW13      29.84S
TERRE HAUTE    PTSUNNY   87  64  46 W12G17    29.86S

$$

INZ030>032-037>040-046>048-054>057-064-065-032300-
CENTRAL INDIANA

CITY           SKY/WX    TMP DP  RH WIND       PRES   REMARKS
FISHERS *+     MOSUNNY   82  68  61 NW13      29.85R
FRANKFORT +    SUNNY     83  64  52 W12       29.87F
GREENWOOD *+   PTSUNNY   86  64  48 W10G18    29.85S
INDIANAPOLIS   PTSUNNY   86  66  51 W21       29.84R
-EAGLE CREEK   PTSUNNY   83  67  58 NW8       29.84S
KOKOMO *+      MOSUNNY   82  63  51 NW13      29.84S
MARION +       PTSUNNY   80  61  52 W13       29.85S
MT COMFORT *+  MOSUNNY   84  63  48 NW12      29.85S
SHELBYVILLE    MOSUNNY   87  65  47 W10G21    29.83R
ZIONSVILLE +   MOSUNNY   83  62  48 NW10      29.86S

$$

INZ033-034-041-042-049-050-058-059-032300-
EAST CENTRAL INDIANA

CITY           SKY/WX    TMP DP  RH WIND       PRES   REMARKS
MUNCIE         SUNNY     80  63  55 NW15      29.84S

$$

INZ060-061-067>069-081>083-085>088-032300-
SOUTHWEST INDIANA

CITY           SKY/WX    TMP DP  RH WIND       PRES   REMARKS
EVANSVILLE     SUNNY     92  68  45 W12       29.87S HX  96
HUNTINGBURG *+ CLOUDY    90  70  51 W7        29.87S HX  95
WASHINGTON +   MOSUNNY   89  65  46 W7        29.85F

$$

INZ062-063-066-070>080-084-089>092-032300-
SOUTH CENTRAL AND SOUTHEAST INDIANA

CITY           SKY/WX    TMP DP  RH WIND       PRES   REMARKS
BLOOMINGTON    SUNNY     87  68  52 NW9       29.86S
MADISON *+     MOSUNNY   88  68  51 W8        29.86F
NORTH VERNON + SUNNY     90  66  45 W12       29.85S
SEYMOUR +      SUNNY     91  70  49 W15       29.83F HX  97

$$




USA.gov is the U.S. government's official web portal to all federal, state and local government web resources and services.